User: anonymous   Login
Location: Unspecified
(0.0000°N, 0.0000°E)
Time: 18:53:31
(UTC+00:00)
Language:

CBERS-4 - Orbit

View from above orbital plane
View from above orbital plane
View from above satellite
View from above satellite

Ground track
Ground track

The orbit data is extracted from the following two-line orbital elements,

1 40336U 14079A   22275.55004528  .00000086  00000-0  44947-4 0  9990
2 40336  98.4749 347.5503 0001665  97.9509 262.1873 14.35455286409772
Epoch (UTC): 02 October 2022 13:12:03
Eccentricity: 0.0001665
inclination: 98.4749°
perigee height: 772 km
apogee height: 775 km
right ascension of ascending node: 347.5503°
argument of perigee: 97.9509°
revolutions per day: 14.35455286
mean anomaly at epoch: 262.1873°
orbit number at epoch: 40977

The dashed part of the orbit path shows where the satellite is in the earth's shadow,  

DLR